Regional Weather Roundup
Issued by NWS Portland, ME

Home | Current Version | Previous Version | Text Only | Print | Product List | Glossary On
Versions: 1 2 3 4 5 6 7 8 9 10 11 12 13 14 15 16 17 18 19 20 21 22 23 24 25 26 27 28 29 30 31 32 33 34 35 36 37 38 39 40 41 42 43 44 45 46 47 48 49 50
000
ASUS41 KGYX 220805
RWRGYX
WEATHER ROUNDUP FOR MAINE AND NEW HAMPSHIRE
NATIONAL WEATHER SERVICE GRAY ME
300 AM EST MON DEC 22 2014

MEZ002-005-006-010-012-015-018-020-021-024-026-027-029-220900-
MAINE

CITY           SKY/WX    TMP DP  RH WIND       PRES   REMARKS
PORTLAND       CLOUDY    31  25  78 N3        30.39S
SANFORD        CLOUDY    28  23  80 N5        30.38S
BAR HARBOR     CLOUDY    27  27 100 N5        30.40S
WISCASSET      CLOUDY    28  25  88 CALM      30.41S
ROCKLAND       CLOUDY    30  28  93 N3        30.38F
FRYEBURG       CLOUDY    26  22  84 CALM      30.38S
LEWISTONAUBURN CLOUDY    28  21  74 N5        30.38S
AUGUSTA        CLOUDY    26  24  92 N5        30.39S
WATERVILLE     CLOUDY    27  21  80 N5        30.37S
BANGOR         FLURRIES  26  24  92 N5        30.41S
GREENVILLE       N/A     23  21  92 CALM      30.30S
MILLINOCKET    CLOUDY    26  25  96 CALM      30.40S
HOULTON        CLOUDY    24  22  91 CALM      30.38F
PRESQUE ISLE   CLOUDY    23  16  74 CALM      30.39F
FRENCHVILLE    CLOUDY    18  17  96 E5        30.35F
CARIBOU        CLOUDY    22  19  89 CALM      30.38F
$$

NHZ002-005-008-009-011-012-014-220900-
NEW HAMPSHIRE

CITY           SKY/WX    TMP DP  RH WIND       PRES   REMARKS
PORTSMOUTH     CLOUDY    31  24  74 N6        30.36F
ROCHESTER      CLOUDY    30  23  75 N7        30.36S
NASHUA         CLOUDY    32  27  82 CALM      30.37F
MANCHESTER     CLOUDY    32  26  78 N5        30.35F
CONCORD        CLOUDY    30  27  88 N5        30.36F
LACONIA        CLOUDY    30  25  80 NE3       30.34F
PLYMOUTH       CLOUDY    28  28 100 CALM      30.36F
BERLIN         CLOUDY    23  19  85 CALM      30.33F
WHITEFIELD     CLOUDY    26  23  88 CALM      30.34S
JAFFREY        CLOUDY    29  27  92 CALM      30.32F
KEENE          CLOUDY    30  28  93 CALM      30.35S
LEBANON        CLOUDY    28  24  85 CALM      30.36S
MT WASHINGTON  CLOUDY    14  -2  48 W28         N/A  WCI  -6
$$

VTZ005-007-008-220900-
VERMONT

CITY           SKY/WX    TMP DP  RH WIND       PRES   REMARKS
ST JOHNSBURY     N/A     26  22  84 MISG      30.35S
MONTPELIER     CLOUDY    22  20  92 CALM      30.37S
BURLINGTON     CLOUDY    26  21  81 N3        30.37S
$$

MAZ007-012-024-CTZ003-RIZ002-NYZ038-NYZ072-220900-
SOUTHERN NEW ENGLAND AND NY

CITY           SKY/WX    TMP DP  RH WIND       PRES   REMARKS
BOSTON         CLOUDY    33  26  75 N7        30.36F
WORCESTER      CLOUDY    30  25  81 NE7       30.32S
NANTUCKET      CLEAR     38  36  92 N5        30.31S
HARTFORD       CLOUDY    33  30  88 N6        30.33F
ALBANY         FLURRIES  29  23  78 NW5       30.36F
NEW YORK CITY  CLOUDY    36  30  79 N3        30.33R
$$

ANZ081-ANZ082-ANZ150-NHZ014-MEZ023>029-220900-
COASTAL MARINE OBSERVATIONS

STATION/POSITION TIME  TEMP    WIND        PRES    WAVE
                       AIR SEA DIR/SP/G            HT/PER
                 (UTC) (F)     (DEG/KT/KT) (MB)    (FT/S)
MOUNT DESERT ROC 0800   38                 1027.9F
MATINICUS ROCK   0700           30/ 16/ 17 1027.9R
PORTLAND WX BUOY 0750   34 43   10/ 10/ 14 1028.8R   2/ 6
WELLS            0700   31 38   10/  4/  5 1028.2R
ISLE OF SHOALS   0700   34      10/ 13/ 14 1027.8R
JEFFREYS LEDGE   0721      49                N/A     3/ 8
CASHES LEDGE BUO 0750   41 48   20/  8/ 10 1027.6R   3/ 6
$$

.............KEY..............
   WCI - WIND CHILL
   TC  - TEMPERATURE IN CELSIUS
   VSB - VISIBILITY IN MILES
   HX  - HEAT INDEX
   FAIR- INDICATES FEW OR NO CLOUDS BELOW 12,000 FT, WITH NO
         SIGNIFICANT WEATHER AND/OR OBSTRUCTIONS TO VISIBILITY.




USA.gov is the U.S. government's official web portal to all federal, state and local government web resources and services.